This is the latest recevied weather packets stored in our database for station/object SV1BYK-4. If no packets are shown the sender has not sent any weather packets the latest 10 day(s).
| Time | Temp. | Humidity | Pressure | Rain* | Wind** | Luminosity | Snow |
|---|---|---|---|---|---|---|---|
| 1777671037 | 12.22° C | 66% | 1017.3 hPa | 0 mm | - | 0 W/m² | - |
| 1777669957 | 12.22° C | 65% | 1017.4 hPa | 0 mm | - | 0 W/m² | - |
| 1777669417 | 12.22° C | 64% | 1017.4 hPa | 0 mm | - | 0 W/m² | - |
| 1777667256 | 12.22° C | 66% | 1017.2 hPa | 0 mm | - | 0 W/m² | - |
| 1777666176 | 12.22° C | 66% | 1016.9 hPa | 0 mm | - | 0 W/m² | - |
| 1777662397 | 12.78° C | 66% | 1016.7 hPa | 0 mm | - | 0 W/m² | - |
| 1777661316 | 12.78° C | 66% | 1016.6 hPa | 0 mm | - | 0 W/m² | - |
| 1777660776 | 12.78° C | 66% | 1016.7 hPa | 0 mm | - | 0 W/m² | - |
| 1777659696 | 12.22° C | 66% | 1016.5 hPa | 0 mm | - | 0 W/m² | - |
| 1777656996 | 12.78° C | 66% | 1016.1 hPa | 0 mm | - | 0 W/m² | - |
| 1777655377 | 12.22° C | 66% | 1016.2 hPa | 0 mm | - | 0 W/m² | - |
| 1777654296 | 12.22° C | 66% | 1016 hPa | 0 mm | - | 0 W/m² | - |
| 1777640256 | 13.33° C | 65% | 1015.4 hPa | 0 mm | - | 0 W/m² | - |
| 1777628376 | 13.89° C | 65% | 1015.1 hPa | 0 mm | - | 0 W/m² | - |
| 1777627296 | 13.33° C | 66% | 1015.3 hPa | 0 mm | - | 0 W/m² | - |
| 1777626756 | 13.89° C | 67% | 1015.4 hPa | 0 mm | - | 0 W/m² | - |
| 1777626216 | 13.33° C | 66% | 1015.3 hPa | 0 mm | - | 0 W/m² | - |
| 1777624596 | 13.33° C | 68% | 1014.4 hPa | 0 mm | - | 0 W/m² | - |
| 1777623516 | 13.33° C | 69% | 1014.4 hPa | 0 mm | - | 0 W/m² | - |
| 1777620816 | 12.78° C | 73% | 1014.5 hPa | 0 mm | - | 0 W/m² | - |
| 1777619196 | 12.22° C | 73% | 1014.3 hPa | 0 mm | - | 0 W/m² | - |
| 1777618656 | 12.22° C | 73% | 1014.2 hPa | 0 mm | - | 0 W/m² | - |
| 1777615416 | 12.78° C | 74% | 1013.3 hPa | 0 mm | - | 0 W/m² | - |
| 1777613796 | 12.22° C | 74% | 1013.2 hPa | 0 mm | - | 0 W/m² | - |
| 1777613256 | 12.22° C | 73% | 1013.3 hPa | 0 mm | - | 0 W/m² | - |
* Rain latest hour (hover to see other rain measurements)
** Current wind speed in m/s (hover to see current wind gust speed)